Location: Cardiff
(53.7833°N, 113.6000°W)
Time: 20:59:23
(UTC+00:00)

Oscar 19 - Pass Details

Date: 08 December 2023
Orbit: 771 x 789 km, 98.9° (Epoch: 04 March)

Event Time Altitude Azimuth Distance (km) Brightness Sun altitude
Rises 13:40:36 0° 11° (NNE) 3,275 13.8 -16.1°
Reaches altitude 10° 13:43:05 10° 3° (N) 2,346 13.0 -15.8°
Maximum altitude 13:47:42 34° 300° (WNW) 1,264 11.2 -15.1°
Drops below altitude 10° 13:52:20 10° 236° (SW) 2,343 12.8 -14.5°
Sets 13:54:49 0° 228° (SW) 3,270 13.6 -14.1°
